Content
SEND FEEDBACK

Daily
Averages
Monthly
Summary
Italy

TURIN, ITALY


Home > Europe > Italy
Elevation: 941 feet     Latitude: 45 13N     Longitude: 007 39E

WEATHER
 
SELECT A DAY
Number of Records: 303,683;   Date Range: 7/1/96 - 7/11/14
 
SHARE

PRINT THIS DATA

[ ← Previous Day ]
WEATHER ALMANAC - FEBRUARY 13, 2013
[ Next Day → ]
[ °C ]   °F
Weather ElementAverageHighLow
Temperature32.9 °F48.2 °F (3:50 pm)21.2 °F (7:50 am)
Dewpoint23 °F26.6 °F (10:20 am)19.4 °F (7:50 am)
Humidity70.1 %100 % (7:20 am)37 % (3:20 pm)
Barometer29.86 in29.98 in (10:50 pm)29.80 in (12:50 am)
Wind Speed4.4 mph8.1 mph (4:20 pm)
Weather ElementAverage
Visibility4 mi
Wind DirectionS (178.3 °)

Weather ElementTotal
Precipitation---
Heating Degree Days30.3 (Base 65)
Averaged from 47 records on February 13, 2013
WEATHER CONDITIONS BREAKOUT
WIND DIRECTION BREAKOUT
WEATHER BY HOUR - FEBRUARY 13, 2013
[ °C ]   °F
Local TimeTemperatureDewpointHumidityBarometerVisibilityWind DirectionWind SpeedGust SpeedPrecipitationEventsConditions
12:50 AM26.6 °F24.8 °F93 %29.80 inCalmClear
1:20 AM26.6 °F24.8 °F93 %29.80 inCalmClear
1:50 AM26.6 °F24.8 °F93 %29.80 in4.3 miCalm
2:20 AM24.8 °F21.2 °F86 %29.80 in4.3 miWest (280°)4.6 mph
2:50 AM24.8 °F21.2 °F86 %29.80 in4.3 miWest (280°)4.6 mph
3:20 AM24.8 °F21.2 °F86 %29.80 in4.3 miWest (280°)4.6 mph
3:50 AM24.8 °F23.0 °F93 %29.80 in4.3 miWNW (290°)4.6 mph
4:20 AM23.0 °F21.2 °F93 %29.80 in4.3 miWest (280°)4.6 mph
4:50 AM23.0 °F21.2 °F93 %29.80 in4.3 miWest (270°)4.6 mph
5:20 AM24.8 °F21.2 °F86 %29.80 in4.3 miWest (270°)4.6 mph
5:50 AM24.8 °F21.2 °F86 %29.80 in4.3 miSW (230°)4.6 mph
6:20 AM24.8 °F21.2 °F86 %29.80 in4.3 miSW (230°)4.6 mph
6:50 AM24.8 °F21.2 °F86 %29.80 in4.3 miSW (230°)4.6 mph
7:20 AM23.0 °F23.0 °F100 %29.83 in4.3 miCalm
7:50 AM21.2 °F19.4 °F93 %29.83 in3.1 miCalmMist
8:20 AM23.0 °F19.4 °F86 %29.83 in3.7 miWNW (300°)4.6 mph
8:50 AM23.0 °F19.4 °F86 %29.83 in3.1 miSSE (160°)3.5 mphMist
9:20 AM26.6 °F23.0 °F86 %29.86 in3.1 miCalmMist
9:50 AM28.4 °F24.8 °F86 %29.86 in3.1 miSW (230°)3.5 mphMist
10:20 AM35.6 °F26.6 °F70 %29.86 in3.1 miCalmMist
10:50 AM35.6 °F26.6 °F70 %29.86 in3.1 miCalmMist
11:20 AM39.2 °F26.6 °F61 %29.89 in4.3 miSSW (210°)4.6 mph
11:50 AM39.2 °F26.6 °F61 %29.89 in5.0 miSSW (200°)6.9 mph
12:20 PM41.0 °F26.6 °F57 %29.86 in5.0 miSSW (210°)6.9 mph
12:50 PM41.0 °F26.6 °F57 %29.86 inSouth (180°)5.8 mphClear
1:20 PM42.8 °F23.0 °F46 %29.86 inVariable2.3 mphClear
1:50 PM44.6 °F24.8 °F46 %29.86 inVariable1.2 mphClear
2:20 PM44.6 °F24.8 °F46 %29.86 inWSW (240°)4.6 mphClear
2:50 PM46.4 °F23.0 °F40 %29.83 inSSW (200°)5.8 mphClear
3:20 PM46.4 °F21.2 °F37 %29.83 inSouth (170°)6.9 mphClear
3:50 PM48.2 °F23.0 °F37 %29.86 inSSW (200°)6.9 mphClear
4:20 PM46.4 °F23.0 °F40 %29.86 inSSW (200°)8.1 mphClear
4:50 PM46.4 °F21.2 °F37 %29.86 inSSW (210°)8.1 mphClear
5:20 PM42.8 °F23.0 °F46 %29.86 inSSW (200°)6.9 mphClear
5:50 PM41.0 °F21.2 °F45 %29.86 inWSW (240°)5.8 mphClear
6:20 PM41.0 °F23.0 °F49 %29.89 inWest (260°)6.9 mphClear
6:50 PM39.2 °F23.0 °F52 %29.89 inWest (280°)4.6 mphClear
7:20 PM37.4 °F23.0 °F56 %29.89 inVariable2.3 mphClear
7:50 PM33.8 °F23.0 °F65 %29.92 inNW (310°)6.9 mphClear
8:20 PM33.8 °F23.0 °F65 %29.92 inNorth (350°)5.8 mphClear
8:50 PM32.0 °F23.0 °F69 %29.92 inNNE (30°)4.6 mphClear
9:20 PM32.0 °F23.0 °F69 %29.92 inNW (310°)4.6 mphClear
9:50 PM32.0 °F23.0 °F69 %29.92 inNW (310°)6.9 mphClear
10:20 PM32.0 °F23.0 °F69 %29.95 inWest (270°)8.1 mphClear
10:50 PM28.4 °F21.2 °F74 %29.98 inEast (100°)4.6 mphClear
11:20 PM26.6 °F21.2 °F80 %29.98 inNE (40°)5.8 mphClear
11:50 PM28.4 °F24.8 °F86 %29.98 inNNW (330°)5.8 mphClear
Hourly data recorded from LIMF, located miles away from Turin, Italy







STORIES FROM OUR PARTNERS